Hourly Data Report for September 22, 2017

All times are specified in Local Standard Time (LST). Add 1 hour to adjust for Daylight Saving Time where and when it is observed.

SAINT JOHN A
NEW BRUNSWICK

45°18'58.000" N
65°53'24.000" W
108.80 m
8104901
71609
YSJ

Download Data

Hourly Data (September 2017)
Hourly Data Report for September 22, 2017
Temp Definition
°C
Dew Point Temp Definition
°C
Rel Hum Definition
%
Wind Dir Definition
10's deg

Wind Spd Definition
km/h
Visibility Definition
km
Stn Press Definition
kPa
Hmdx Definition


Wind Chill Definition


Weather Definition


TIME
00:00 Legend Double Dagger 8.8 6.7 86 2 9 24.1 100.94     LegendNANA
01:00 Legend Double Dagger 8.3 6.9 91 1 9 24.1 100.93     LegendNANA
02:00 Legend Double Dagger 10.5 9.0 90 7 13 24.1 100.91     Mainly Clear
03:00 Legend Double Dagger 8.4 7.6 95 5 11 24.1 100.91     LegendNANA
04:00 Legend Double Dagger 7.6 7.0 96 5 7 24.1 100.90     LegendNANA
05:00 Legend Double Dagger 6.9 6.4 97 7 5 24.1 100.86     Mainly Clear
06:00 Legend Double Dagger 6.5 6.0 97 4 6 24.1 100.89     LegendNANA
07:00 Legend Double Dagger 8.3 7.9 98 2 8 24.1 100.92     LegendNANA
08:00 Legend Double Dagger 12.5 10.4 87 3 13 24.1 100.93     Mostly Cloudy
09:00 Legend Double Dagger 15.8 11.3 74 2 11 24.1 100.94     LegendNANA
10:00 Legend Double Dagger 17.9 9.1 56 7 21 24.1 100.92     LegendNANA
11:00 Legend Double Dagger 19.4 9.4 52 7 18 24.1 100.87     Mainly Clear
12:00 Legend Double Dagger 20.6 8.6 46 7 19 24.1 100.82     LegendNANA
13:00 Legend Double Dagger 20.9 6.2 38 9 20 24.1 100.77     LegendNANA
14:00 Legend Double Dagger 21.0 7.3 41 8 15 24.1 100.75     Mainly Clear
15:00 Legend Double Dagger 21.5 6.4 37 11 14 24.1 100.67     LegendNANA
16:00 Legend Double Dagger 21.5 6.4 37 9 14 24.1 100.65     LegendNANA
17:00 Legend Double Dagger 20.6 7.2 41 10 10 24.1 100.65     Mainly Clear
18:00 Legend Double Dagger 17.4 8.7 56 8 7 24.1 100.63     LegendNANA
19:00 Legend Double Dagger 13.5 9.4 76 3 4 24.1 100.62     LegendNANA
20:00 Legend Double Dagger 9.7 8.1 90 3 7 24.1 100.61     Mainly Clear
21:00 Legend Double Dagger 9.9 8.1 88 2 4 24.1 100.56     LegendNANA
22:00 Legend Double Dagger 8.8 7.7 93 3 4 24.1 100.57     LegendNANA
23:00 Legend Double Dagger 11.3 9.2 87 36 2 24.1 100.58     Mainly Clear

Notes on Data Quality.

Legend

  • E = Estimated
  • M = Missing
  • NA = Not Available
  • ‡ = Partner data that is not subject to review by the National Climate Archives
Date modified: